This demonstration page uses our WeatherBlox Daily Observations layout. Learn more.

Left ArrowRight Arrow

Hourly Observations for January 5, 2022

Temp ( °F °C ) Dew Point ( °F °C ) Humidity (%) Winds ( mph kmh ) Pressure ( in mb ) Visibility ( mi km ) Precip ( " mm )
12:53 am 00:53 Clear 40 4.4 21 -6.1 47 47 W 10 17 29.93 1014 10 16 0.00 0.00
1:53 am 01:53 Clear 36 2.2 21 -6.1 55 55 N 3 6 29.93 1014 10 16 0.00 0.00
2:53 am 02:53 Clear 35 1.7 21 -6.1 57 57 NW 7 11 29.93 1013 10 16 0.00 0.00
3:53 am 03:53 Clear 32 0 19 -7.2 59 59 NNW 10 17 29.92 1013 10 16 0.00 0.00
4:53 am 04:53 Clear 33 0.6 19 -7.2 56 56 NW 9 15 29.91 1013 10 16 0.00 0.00
5:53 am 05:53 Clear 37 2.8 19 -7.2 48 48 WNW 10 17 29.91 1013 10 16 0.00 0.00
6:53 am 06:53 Clear 31 -0.6 18 -7.8 59 59 WSW 8 13 29.96 1014 10 16 0.00 0.00
7:53 am 07:53 Clear 30 -1.1 19 -7.2 64 64 VRB 5 7 29.99 1016 10 16 0.00 0.00
8:53 am 08:53 Sunny 34 1.1 20 -6.7 56 56 SSW 3 6 30.02 1017 10 16 0.00 0.00
9:53 am 09:53 Sunny 49 9.4 17 -8.3 28 28 NE 10 17 30.01 1016 10 16 0.00 0.00
10:53 am 10:53 Sunny 51 10.6 18 -7.8 27 27 NE 7 11 30.02 1017 10 16 0.00 0.00
11:53 am 11:53 Sunny 53 11.7 17 -8.3 24 24 Calm 30.00 1016 10 16 0.00 0.00
12:53 pm 12:53 Sunny 57 13.9 17 -8.3 21 21 Calm 29.95 1014 10 16 0.00 0.00
1:53 pm 13:53 Sunny 58 14.4 16 -8.9 19 19 SSW 3 6 29.91 1013 10 16 0.00 0.00
2:53 pm 14:53 Sunny 61 16.1 16 -8.9 17 17 WSW 5 7 29.88 1012 10 16 0.00 0.00
3:53 pm 15:53 Sunny 61 16.1 13 -10.6 15 15 VRB 3 6 29.88 1012 10 16 0.00 0.00
4:53 pm 16:53 Sunny 61 16.1 15 -9.4 17 17 S 5 7 29.87 1012 10 16 0.00 0.00
5:53 pm 17:53 Sunny 60 15.6 14 -10 16 16 Calm 29.84 1011 10 16 0.00 0.00
6:53 pm 18:53 Clear 56 13.3 14 -10 19 19 S 3 6 29.87 1012 10 16 0.00 0.00
7:53 pm 19:53 Clear 46 7.8 15 -9.4 29 29 SSE 8 13 29.88 1012 10 16 0.00 0.00
8:53 pm 20:53 Clear 44 6.7 15 -9.4 31 31 SSW 9 15 29.89 1012 10 16 0.00 0.00
9:53 pm 21:53 Clear 42 5.6 15 -9.4 33 33 SSW 8 13 29.85 1011 10 16 0.00 0.00
10:53 pm 22:53 Clear 43 6.1 14 -10 31 31 Calm 29.87 1011 10 16 0.00 0.00
11:53 pm 23:53 Clear 38 3.3 15 -9.4 39 39 S 7 11 29.86 1011 10 16 0.00 0.00

Powered by AerisWeather